Location: Zagreb
(45.8000°N, 16.0000°E)
Time: 13:59:55
(UTC+02:00)

Transit 2A - Pass Details

Date: 11 August 2022
Orbit: 601 x 956 km, 66.7° (Epoch: 25 September)

Event Time Altitude Azimuth Distance (km) Brightness Sun altitude
Rises 14:03:25 0° 250° (WSW) 3,096 9.5 56.7°
Reaches altitude 10° 14:06:17 10° 265° (W) 2,120 8.7 56.5°
Maximum altitude 14:10:02 22° 317° (NW) 1,401 7.6 56.1°
Drops below altitude 10° 14:13:35 10° 9° (N) 2,006 8.0 55.8°
Sets 14:16:14 0° 25° (NNE) 2,886 8.7 55.6°
